Dewpoint
53 54 54 54 56 56 56 57 57 57 59 61 61 60 62 61 62 62 62 63 64 65 65 65 65 65 64 64 64 63 61 58 56 54 53 51 55 59 61 59 63 62 59 47 40 36 36 41 44 49 44 42 44 42 45 43 44 39 38 38 36 36 32 36 33 33 36 26 27 30 30 31 30 32 32 34 41 43 47 50 49 57 57 57 57 59 60 61
53 53 54 54 55 56 56 57 57 57 58 60 60 59 61 61 62 62 61 62 64 64 65 65 65 65 65 65 64 62 58 56 55 54 54 58 60 60 62 61 65 62 56 41 37 33 34 41 44 47 42 38 47 42 43 42 40 34 35 38 38 36 36 37 28 25 24 25 28 30 31 31 31 31 32 31 35 42 43 46 52 54 56 58 59 60 60 60
54 53 53 54 54 55 56 56 57 57 57 59 60 60 60 61 61 62 61 61 63 64 64 64 64 64 64 64 63 61 57 55 54 53 53 60 62 62 61 62 65 62 47 40 37 34 33 38 43 44 44 40 42 40 42 40 38 38 33 31 34 38 37 27 24 23 23 26 28 26 27 30 30 31 32 31 33 39 40 47 49 53 54 56 58 60 60 59
53 53 53 54 54 55 55 56 57 57 57 58 59 60 60 61 61 62 62 61 61 64 64 64 64 64 63 63 62 59 57 54 52 55 56 61 63 62 61 62 64 61 48 44 40 37 40 43 44 41 44 42 43 42 39 41 38 39 33 31 32 35 35 31 26 24 24 27 25 25 24 28 29 30 29 29 32 33 37 46 49 52 55 57 58 59 59 59
53 54 52 52 54 55 55 56 57 57 57 58 59 59 59 61 61 62 62 62 62 63 64 64 64 63 63 63 60 58 56 53 53 56 56 62 63 63 62 62 64 55 46 46 43 44 42 42 43 44 43 39 45 39 37 39 41 35 32 34 37 30 30 26 24 25 24 23 22 22 26 27 27 30 29 30 29 29 31 33 45 53 57 58 58 59 59 59
53 54 54 53 54 55 56 55 56 56 57 58 59 60 59 60 61 61 61 62 62 62 64 64 64 63 63 62 57 56 54 43 53 54 60 62 63 63 63 63 63 51 46 44 40 43 41 44 42 42 41 40 42 38 39 38 39 36 36 35 35 30 27 28 26 25 23 22 21 22 23 23 26 27 28 28 27 28 29 31 41 56 58 59 59 59 58 58
52 53 54 54 53 54 54 54 55 57 57 58 58 59 59 60 61 61 61 61 62 62 63 64 64 63 62 59 56 55 53 49 54 56 61 62 63 63 62 63 63 49 48 44 43 40 42 41 40 42 42 42 42 40 43 37 38 38 37 35 34 34 30 26 25 25 23 22 22 23 24 22 22 23 24 27 27 28 27 28 39 56 58 59 59 59 59 59
52 53 54 54 54 54 55 55 54 56 57 58 58 58 60 60 60 61 61 61 61 62 63 64 64 63 61 57 54 52 53 51 51 56 61 62 61 61 61 57 52 49 47 42 43 40 41 39 38 44 42 40 43 41 44 38 37 37 37 39 35 32 30 25 24 22 23 23 23 24 22 21 22 22 23 22 23 24 25 36 39 57 58 59 59 59 59 59
53 53 53 54 54 55 55 55 54 56 57 57 58 58 59 60 60 60 61 60 61 62 63 63 63 62 61 56 53 50 50 54 54 58 60 59 57 58 56 52 50 47 46 47 44 45 41 41 39 43 40 41 45 41 43 38 37 37 38 40 37 34 32 23 22 22 23 25 24 22 22 22 22 25 22 22 23 24 30 45 49 57 57 58 58 59 59 59
53 53 53 54 54 55 55 56 56 55 57 58 58 58 59 60 60 60 61 60 60 61 63 63 63 62 59 55 53 48 52 55 56 59 59 57 55 55 51 51 49 46 46 49 50 49 40 45 39 46 47 45 48 44 45 40 41 39 37 38 38 34 24 23 22 21 22 23 22 23 23 23 23 24 25 25 22 28 43 47 52 57 57 57 58 59 59 59
53 52 53 53 54 55 55 55 56 56 57 58 58 58 59 59 60 60 60 60 60 61 62 63 63 61 57 56 51 48 56 54 56 58 59 57 53 53 49 50 47 46 44 52 49 52 51 51 51 50 48 42 48 45 47 47 43 38 37 37 38 31 24 23 23 22 23 23 22 25 24 25 25 26 26 27 25 28 36 48 50 55 56 57 57 58 58 59
52 52 52 53 54 55 55 55 56 56 57 58 58 58 58 59 60 59 60 61 61 61 62 63 63 61 58 55 53 52 55 54 58 58 57 56 54 53 50 49 46 46 44 48 54 55 55 53 50 44 40 48 45 47 47 52 40 37 37 36 36 34 26 25 22 23 24 25 21 24 25 24 24 21 24 26 27 26 27 44 48 51 55 56 57 57 58 58
52 52 52 53 54 55 55 55 56 56 57 58 58 58 59 59 59 59 60 60 61 61 62 62 62 60 57 52 55 55 58 57 57 57 56 56 55 54 51 50 47 46 45 48 55 56 56 55 50 46 49 48 46 47 47 44 44 36 37 34 32 33 32 29 26 27 24 26 21 33 31 33 31 25 22 23 26 27 26 33 46 47 49 53 55 57 57 57
53 53 53 53 54 55 55 55 56 55 56 57 58 58 58 58 59 59 60 60 61 62 62 62 62 59 56 52 56 55 57 57 56 55 55 54 51 50 50 53 55 55 58 57 57 57 56 55 52 51 53 45 43 48 45 44 41 41 38 34 33 30 30 31 25 26 23 27 24 33 31 33 35 35 30 23 24 27 26 27 36 43 46 48 51 55 56 57
53 53 53 53 54 55 55 55 56 55 56 57 58 58 58 58 58 59 60 60 61 62 62 62 61 57 52 54 57 60 61 56 54 54 54 50 48 48 51 54 55 55 55 56 58 57 57 55 53 52 49 53 49 48 46 43 41 39 36 34 37 32 32 39 29 25 24 28 31 31 30 31 33 35 36 30 23 27 25 27 29 33 38 44 46 50 53 55
52 52 53 53 54 54 54 55 55 55 55 57 58 57 57 58 58 59 60 59 61 62 63 59 58 57 51 49 55 61 57 53 53 54 53 48 48 47 53 54 54 54 54 55 56 57 57 55 51 52 51 52 48 47 44 42 41 39 39 36 35 34 33 39 35 27 26 27 29 29 29 31 32 34 34 32 25 24 26 26 26 29 31 35 40 44 48 50
52 52 52 53 54 54 54 54 55 56 55 57 57 57 57 57 57 59 59 60 60 62 60 56 57 57 49 55 59 54 53 54 53 52 51 48 47 51 53 53 52 52 54 54 53 54 55 52 51 50 52 49 49 47 44 42 40 38 39 37 36 35 36 36 39 34 30 27 26 28 28 29 33 34 35 31 26 24 23 24 24 25 29 32 34 36 40 45
52 52 52 53 53 54 54 54 55 56 56 56 57 56 56 57 57 57 57 57 58 59 58 57 57 52 50 53 49 51 55 54 51 50 50 48 49 52 51 50 51 51 50 49 51 51 51 48 51 48 48 48 48 45 42 40 41 38 37 37 37 38 37 36 37 39 27 27 27 27 27 27 29 30 31 34 27 23 23 22 22 23 23 29 33 33 33 37
52 52 53 53 53 54 54 54 55 56 56 57 57 57 57 57 54 54 53 52 51 47 46 48 50 43 40 47 54 54 55 56 52 49 48 47 50 50 49 51 51 48 47 47 46 47 48 47 48 47 45 46 46 44 43 42 42 40 38 38 38 38 38 37 38 36 28 26 27 27 27 26 27 28 29 30 32 24 23 23 23 23 23 23 28 33 34 34
51 52 53 53 53 54 54 55 55 55 56 55 55 53 51 47 47 46 51 50 48 48 49 51 51 52 50 50 52 55 58 58 51 53 49 51 49 48 49 49 48 46 45 42 45 45 46 44 43 43 44 46 47 46 44 42 42 43 40 39 39 39 39 39 40 38 29 28 27 28 28 28 28 29 29 29 32 30 25 24 24 24 23 23 23 26 32 34
52 52 53 53 53 54 54 55 54 56 55 54 53 50 42 44 41 39 45 48 48 48 47 49 52 51 50 53 55 54 53 53 54 52 50 51 49 47 47 46 44 43 42 42 44 46 44 41 41 42 43 46 47 47 45 43 43 40 40 40 39 40 39 39 39 39 31 30 30 29 29 30 29 30 30 31 33 32 32 28 24 24 24 24 25 26 28 32
52 52 52 53 53 54 54 55 55 56 55 53 52 48 47 46 46 48 46 43 47 48 47 48 50 49 53 55 55 55 54 51 52 51 53 53 51 47 46 44 42 41 42 45 45 43 42 39 39 42 44 46 46 47 46 43 42 43 41 39 40 40 39 39 30 31 34 30 32 33 30 30 31 31 32 34 33 33 33 32 29 25 25 25 25 27 28 31
52 52 53 53 54 54 55 55 54 55 54 51 49 48 46 47 50 48 45 43 43 47 46 46 46 48 49 53 56 56 51 49 48 51 52 53 49 45 45 43 42 42 43 43 42 41 40 40 41 42 43 44 45 45 45 45 44 45 44 41 39 40 39 38 34 27 34 32 34 30 30 30 30 30 32 35 36 36 36 34 32 30 28 27 26 26 28 29
52 52 52 53 54 54 55 55 54 54 52 51 49 47 48 49 49 45 41 38 36 43 46 46 46 47 47 47 54 53 50 50 50 49 53 51 48 47 44 42 41 42 42 42 42 41 40 41 41 42 43 43 43 44 44 44 44 45 45 44 41 39 39 39 36 25 27 29 29 28 31 31 30 29 30 31 31 34 35 36 36 34 33 32 34 34 33 30
52 53 53 53 54 54 54 54 51 50 52 50 48 48 49 50 47 44 39 36 38 37 46 46 47 47 49 54 55 52 51 51 50 51 53 51 48 46 43 43 42 41 42 42 41 41 40 42 43 42 42 43 43 43 43 43 43 44 45 45 42 40 39 38 28 26 29 31 32 32 28 30 32 31 31 32 33 31 31 31 32 34 35 33 32 32 34 36
52 53 53 53 54 54 54 49 49 51 51 47 48 49 50 49 47 43 37 30 30 35 43 39 46 43 51 48 50 51 52 48 52 52 53 52 51 46 44 42 42 40 42 42 41 42 41 43 42 42 42 42 42 42 43 43 42 42 43 46 46 43 34 31 28 30 26 28 32 31 31 30 32 32 33 33 33 33 34 34 32 32 32 33 34 33 33 33
51 52 53 53 53 54 49 45 51 51 46 46 49 50 49 48 47 41 34 31 27 38 37 44 41 43 47 48 48 52 42 44 53 54 52 53 50 52 43 42 41 42 42 42 41 40 41 42 42 43 42 42 42 41 43 43 42 41 45 46 46 43 35 32 30 31 31 32 33 30 31 30 30 32 34 34 33 32 32 32 33 34 34 33 32 33 34 34
52 52 53 53 53 52 49 50 49 48 47 49 51 50 49 48 48 47 35 22 19 39 37 42 43 50 44 48 50 46 49 51 46 49 52 53 52 50 45 41 40 41 41 41 37 40 41 42 42 42 42 42 41 42 44 43 42 41 45 46 45 43 40 35 33 31 33 30 31 27 29 27 28 30 31 31 31 31 31 31 32 33 34 34 34 33 33 33
53 52 53 53 52 53 52 50 49 47 50 51 50 49 49 47 43 37 29 19 35 35 48 38 53 44 46 49 47 47 48 49 44 49 52 53 52 49 46 43 41 41 41 41 38 40 41 43 43 43 42 41 42 43 44 44 42 40 45 46 45 43 41 41 35 33 33 32 32 28 30 29 30 32 31 31 30 30 31 31 32 33 33 34 34 35 34 33
53 53 53 52 53 52 51 51 49 50 51 51 49 49 47 45 41 31 25 18 37 28 39 44 38 42 45 44 43 45 45 48 48 49 50 49 49 50 49 50 44 41 41 41 40 41 41 43 44 43 42 42 42 42 44 44 43 40 42 41 39 39 36 35 34 34 33 31 33 31 30 30 29 33 32 32 32 32 32 31 32 33 33 33 34 34 36 35
53 53 52 53 50 50 50 47 49 51 51 50 50 49 46 42 32 26 19 22 34 34 45 42 38 45 42 41 40 44 44 47 47 47 46 48 47 47 46 46 46 42 41 40 40 41 41 42 44 44 44 44 44 41 41 44 42 42 37 37 39 36 37 35 33 33 32 32 31 31 29 31 30 30 31 32 32 31 31 30 29 30 31 32 33 34 34 35
53 53 53 52 50 50 47 45 49 51 50 50 49 46 42 29 32 25 21 36 25 33 37 38 43 41 41 42 40 42 42 45 47 46 44 44 43 43 44 40 43 36 36 37 37 39 41 41 42 43 44 44 44 42 40 42 41 38 38 36 35 31 33 31 31 30 32 32 24 27 29 28 30 31 30 30 31 32 31 30 30 29 30 31 32 33 34 36
52 52 53 51 50 48 48 50 51 50 50 50 47 44 35 27 20 27 30 27 23 36 36 40 42 40 40 40 39 41 43 41 46 45 44 45 44 43 44 42 43 41 34 38 38 38 39 42 42 41 42 44 44 41 37 38 40 37 35 36 35 29 29 29 29 28 28 29 28 29 28 28 29 29 31 32 33 33 31 32 32 31 31 31 32 32 33 35
52 53 49 48 47 49 50 51 51 50 49 48 44 38 32 25 22 31 27 28 27 36 40 40 42 40 40 38 39 43 40 44 45 44 44 42 43 41 43 43 42 40 38 39 36 37 33 34 40 40 40 43 43 42 40 40 40 38 37 37 35 33 31 30 28 29 29 29 23 25 26 26 27 28 31 31 32 32 31 31 32 32 32 32 32 34 34 34
50 49 48 47 48 49 50 50 49 49 49 46 40 33 26 24 31 27 27 29 31 37 35 40 40 40 39 38 40 43 43 40 45 43 42 41 39 41 41 42 42 39 40 36 36 36 35 35 41 42 39 43 42 43 40 38 38 38 38 39 35 34 31 29 21 25 19 18 18 19 28 27 28 30 29 29 28 28 28 27 29 30 30 30 31 32 32 33
48 48 49 47 47 49 50 51 50 49 47 42 34 29 27 28 26 28 28 34 34 35 36 39 41 38 38 38 40 41 44 41 43 43 41 41 41 40 42 43 41 39 38 34 37 34 36 34 41 41 39 42 42 38 38 40 35 35 38 36 37 32 28 25 22 22 18 16 21 18 24 26 26 25 26 27 27 26 27 26 26 28 30 30 31 31 31 32
46 47 44 46 47 49 50 50 50 48 45 38 31 27 30 28 33 35 36 35 34 37 37 32 33 35 34 34 38 40 41 43 43 42 38 42 40 41 41 42 42 39 38 34 36 36 33 33 40 39 37 42 43 40 38 40 37 35 35 36 35 36 34 27 21 14 15 15 17 22 23 23 21 21 26 26 26 24 24 25 25 26 29 29 30 31 31 31
44 44 45 45 47 49 50 50 49 47 41 35 30 31 29 30 35 35 35 36 31 33 36 35 32 34 35 35 36 40 41 39 39 41 37 41 36 43 41 41 42 40 39 37 35 35 35 32 33 35 38 37 38 40 36 37 37 35 36 37 35 31 32 29 24 22 16 15 13 17 22 22 23 22 20 23 24 24 24 25 25 24 24 27 29 30 30 31
45 43 38 45 48 49 49 50 48 43 37 32 30 31 31 30 35 33 35 36 36 35 33 34 31 31 33 35 37 40 41 36 40 39 36 39 36 42 42 41 40 40 39 38 35 35 35 31 34 35 37 37 38 39 35 36 35 35 36 35 35 33 33 31 31 20 20 14 13 16 18 19 25 25 21 20 21 24 23 24 24 24 24 25 27 30 30 30
41 38 37 46 48 46 48 47 43 39 34 29 30 30 34 30 30 35 37 36 36 34 33 32 30 31 32 32 38 38 41 39 39 39 38 39 39 44 41 41 40 40 39 38 35 37 32 35 32 34 35 39 36 39 35 35 32 33 34 33 32 29 32 31 27 25 23 14 13 12 15 19 24 26 23 22 20 20 22 24 27 26 25 25 26 28 30 30
41 38 38 46 46 46 46 43 37 33 32 33 34 31 30 29 31 33 35 35 37 38 36 32 30 32 31 32 31 35 40 39 39 38 39 39 40 37 42 41 41 39 39 38 36 35 30 32 32 32 34 36 36 38 37 36 34 34 33 33 34 30 30 30 28 25 18 18 17 14 18 20 24 26 24 23 22 22 23 25 26 27 26 25 27 27 29 30
37 32 36 46 46 44 41 34 33 36 33 31 29 32 32 35 30 32 33 37 37 36 36 34 34 31 31 32 33 33 34 39 39 39 39 38 40 41 42 41 40 40 38 36 34 36 33 31 33 33 34 35 37 36 34 37 36 35 34 33 35 31 31 29 27 27 22 27 19 17 13 19 24 27 26 25 25 24 24 27 27 28 27 25 25 27 29 30
36 34 44 46 46 42 36 32 34 33 31 34 35 34 35 33 32 33 33 34 34 35 34 33 34 33 33 33 32 31 33 33 39 38 39 40 41 41 42 41 40 40 39 37 37 35 36 32 32 30 32 32 32 33 35 35 36 34 34 34 34 30 31 30 28 27 28 23 23 22 19 21 23 28 29 27 26 26 25 26 26 26 27 27 25 25 27 29
38 37 39 45 44 41 32 27 28 30 33 34 34 33 35 34 31 30 32 33 33 33 33 34 36 37 33 34 33 32 33 33 36 39 39 40 40 42 42 41 40 41 38 36 34 35 31 32 32 31 31 29 32 33 34 35 35 34 33 33 34 33 32 30 27 24 26 28 27 25 22 22 27 28 26 23 21 23 24 24 26 26 28 31 29 28 31 33
38 39 40 41 43 38 29 31 31 31 32 32 32 30 31 32 35 35 33 32 35 33 35 32 35 36 34 36 32 33 32 33 34 38 37 38 40 42 43 42 42 40 39 39 38 35 32 32 31 29 25 24 25 26 30 31 34 34 34 34 34 34 32 29 28 23 24 25 28 25 23 22 21 22 20 20 21 19 20 22 24 28 28 29 30 32 35 34
34 28 35 37 38 34 32 33 32 32 32 31 30 31 31 29 33 35 35 33 35 35 35 37 36 36 35 34 32 32 32 32 33 32 35 34 36 38 43 42 42 40 39 39 39 36 32 33 32 31 30 28 30 32 35 35 35 33 33 33 33 34 33 32 30 28 25 25 27 27 25 23 21 22 21 20 22 19 19 20 24 25 26 29 29 31 34 34
34 30 31 28 34 34 30 29 32 32 31 31 29 31 28 29 30 30 34 29 34 33 34 34 33 34 33 34 32 32 32 32 32 32 32 34 36 37 41 43 42 41 39 39 37 35 32 31 31 31 32 31 34 34 36 35 34 34 34 33 34 34 33 32 30 28 29 26 21 25 28 28 27 26 24 23 23 22 24 23 22 23 26 30 30 31 34 33
29 31 33 34 30 28 27 26 31 31 31 30 29 30 30 30 29 25 31 35 36 35 32 34 33 35 35 34 34 31 32 32 32 32 33 33 35 37 40 42 41 40 40 39 37 33 32 30 31 31 31 31 34 34 35 34 34 35 35 34 33 34 33 32 31 31 30 28 25 26 28 27 27 28 27 25 23 22 21 21 22 21 24 27 30 30 30 30
31 32 31 32 29 29 29 30 32 31 30 30 31 31 29 28 27 30 28 31 33 33 35 29 32 34 35 35 33 31 33 31 30 33 33 33 33 33 35 40 42 41 41 41 35 34 32 30 32 31 30 31 33 33 33 33 33 34 34 34 34 34 33 33 32 32 32 30 30 29 29 29 28 27 27 27 26 24 22 23 22 20 21 25 27 29 29 30
30 29 28 29 29 27 29 31 32 30 29 31 27 30 29 28 29 32 33 32 30 31 36 32 33 33 33 34 34 33 33 34 34 31 33 34 32 33 33 35 33 39 43 39 37 38 33 31 33 31 30 30 33 33 33 33 33 32 33 34 34 34 34 34 33 33 33 32 32 32 31 30 31 30 28 28 25 25 23 21 20 21 22 23 25 27 28 29
33 33 30 28 26 27 28 29 30 28 27 25 24 29 30 30 30 32 32 35 33 31 33 31 33 34 35 34 34 33 34 34 34 35 35 36 34 33 33 33 34 38 40 38 39 36 37 32 33 31 29 29 31 31 32 32 32 32 32 33 33 33 32 33 33 34 33 32 32 32 31 30 31 32 31 28 26 25 24 24 24 23 22 22 23 24 25 27
31 32 31 28 25 31 25 25 26 27 22 26 27 30 30 31 33 34 30 34 35 35 35 34 34 35 33 33 32 33 35 35 36 36 36 35 36 35 35 34 34 34 38 39 39 36 37 34 31 31 29 29 31 31 31 31 31 30 31 32 34 33 33 33 33 34 33 33 32 31 31 32 32 32 31 30 27 26 26 26 26 26 25 23 23 23 23 25